| time (UTC) | temp F | wind direction | speed MPH | gust MPH | rain 1hr in | rain 24hr in | rain mn in | humidity % | barometer mb |
| 20260901192044 | 59 | 324 | 1.0 | 4.0 | 0.00 | 0.00 | 0.00 | 80 | 1016.6 |
| 20260901191107 | 59 | 346 | 1.0 | 4.0 | 0.00 | 0.00 | 0.00 | 81 | 1016.6 |
| 20260901190049 | 59 | 328 | 1.0 | 3.0 | 0.00 | 0.00 | 0.00 | 82 | 1016.6 |
| 20260901185017 | 58 | 330 | 1.0 | 5.0 | 0.00 | 0.00 | 0.00 | 83 | 1016.5 |
| 20260901184007 | 57 | 314 | 1.0 | 5.0 | 0.00 | 0.00 | 0.00 | 83 | 1016.5 |
| 20260901182946 | 57 | 326 | 0.0 | 1.0 | 0.00 | 0.00 | 0.00 | 82 | 1016.6 |
| 20260901180846 | 57 | 326 | 0.0 | 4.0 | 0.00 | 0.00 | 0.00 | 82 | 1016.5 |
| 20260901175835 | 57 | 328 | 1.0 | 4.0 | 0.00 | 0.00 | 0.00 | 82 | 1016.6 |
| 20260901174840 | 58 | 319 | 0.0 | 2.0 | 0.00 | 0.00 | 0.00 | 82 | 1016.7 |
| 20260901173852 | 58 | 305 | 0.0 | 2.0 | 0.00 | 0.00 | 0.00 | 82 | 1016.8 |
| 20260901172830 | 58 | 308 | 0.0 | 2.0 | 0.00 | 0.00 | 0.00 | 82 | 1016.8 |
| 20260901165544 | 57 | 317 | 0.0 | 3.0 | 0.00 | 0.00 | 0.00 | 82 | 1017.0 |
| 20260901164542 | 57 | 321 | 0.0 | 1.0 | 0.00 | 0.01 | 0.00 | 82 | 1017.2 |
| 20260901162412 | 57 | 321 | 0.0 | 1.0 | 0.00 | 0.01 | 0.00 | 81 | 1017.4 |
| 20260901161422 | 57 | 314 | 0.0 | 3.0 | 0.00 | 0.01 | 0.00 | 80 | 1017.3 |
| 20260901160435 | 58 | 307 | 0.0 | 2.0 | 0.00 | 0.01 | 0.00 | 79 | 1017.4 |
| 20260901155443 | 59 | 298 | 0.0 | 2.0 | 0.00 | 0.01 | 0.00 | 78 | 1017.6 |
| 20260901154430 | 59 | 290 | 0.0 | 2.0 | 0.00 | 0.01 | 0.00 | 77 | 1017.7 |
| 20260901153421 | 59 | 257 | 0.0 | 0.0 | 0.00 | 0.01 | 0.00 | 77 | 1017.9 |
| 20260901152421 | 59 | 255 | 0.0 | 0.0 | 0.00 | 0.01 | 0.00 | 77 | 1018.0 |
| 20260901144157 | 59 | 252 | 0.0 | 2.0 | 0.00 | 0.01 | 0.00 | 78 | 1018.2 |
| 20260901141957 | 59 | 314 | 0.0 | 1.0 | 0.00 | 0.01 | 0.00 | 77 | 1018.3 |
| 20260901135914 | 60 | 318 | 0.0 | 2.0 | 0.00 | 0.01 | 0.01 | 77 | 1018.4 |
| 20260901134855 | 60 | 312 | 0.0 | 2.0 | 0.00 | 0.01 | 0.01 | 76 | 1018.6 |
| 20260901133830 | 61 | 314 | 1.0 | 3.0 | 0.00 | 0.01 | 0.01 | 75 | 1018.7 |
| 20260901132825 | 61 | 319 | 0.0 | 3.0 | 0.00 | 0.01 | 0.01 | 75 | 1018.7 |
| 20260901130649 | 61 | 314 | 0.0 | 1.0 | 0.00 | 0.01 | 0.01 | 74 | 1018.8 |
| 20260901125645 | 62 | 314 | 0.0 | 0.0 | 0.00 | 0.01 | 0.01 | 73 | 1019.1 |
| 20260901124622 | 62 | 313 | 0.0 | 0.0 | 0.00 | 0.01 | 0.01 | 72 | 1019.3 |
| 20260901123608 | 62 | 311 | 0.0 | 0.0 | 0.00 | 0.01 | 0.01 | 71 | 1019.5 |
| 20260901121518 | 64 | 311 | 0.0 | 2.0 | 0.00 | 0.01 | 0.01 | 69 | 1019.7 |
| 20260901120454 | 64 | 305 | 0.0 | 1.0 | 0.00 | 0.01 | 0.01 | 68 | 1019.8 |
| 20260901113244 | 65 | 340 | 0.0 | 3.0 | 0.00 | 0.01 | 0.01 | 68 | 1019.9 |
| 20260901112228 | 65 | 302 | 1.0 | 3.0 | 0.00 | 0.01 | 0.01 | 67 | 1019.8 |
| 20260901110058 | 65 | 310 | 0.0 | 0.0 | 0.00 | 0.01 | 0.01 | 66 | 1019.9 |
| 20260901105115 | 65 | 310 | 0.0 | 0.0 | 0.00 | 0.01 | 0.01 | 66 | 1019.9 |
| 20260901103014 | 66 | 315 | 0.0 | 2.0 | 0.00 | 0.01 | 0.01 | 65 | 1019.8 |
| 20260901101942 | 67 | 315 | 0.0 | 3.0 | 0.00 | 0.01 | 0.01 | 65 | 1019.9 |
| 20260901101006 | 67 | 323 | 1.0 | 3.0 | 0.00 | 0.01 | 0.01 | 64 | 1019.8 |
| 20260901100025 | 67 | 326 | 1.0 | 2.0 | 0.00 | 0.01 | 0.01 | 64 | 1020.0 |
| 20260901095016 | 68 | 323 | 0.0 | 2.0 | 0.00 | 0.01 | 0.01 | 63 | 1020.0 |
| 20260901093955 | 68 | 316 | 0.0 | 2.0 | 0.00 | 0.01 | 0.01 | 62 | 1020.0 |
| 20260901093013 | 68 | 313 | 0.0 | 3.0 | 0.00 | 0.01 | 0.01 | 62 | 1019.9 |
| 20260901092035 | 69 | 320 | 1.0 | 3.0 | 0.00 | 0.01 | 0.01 | 61 | 1019.9 |
| 20260901091018 | 69 | 323 | 1.0 | 3.0 | 0.00 | 0.01 | 0.01 | 61 | 1019.8 |
| 20260901085958 | 69 | 342 | 1.0 | 4.0 | 0.00 | 0.01 | 0.01 | 60 | 1019.7 |
| 20260901083842 | 71 | 332 | 1.0 | 3.0 | 0.00 | 0.01 | 0.01 | 57 | 1019.8 |
| 20260901082842 | 71 | 327 | 1.0 | 5.0 | 0.00 | 0.01 | 0.01 | 56 | 1019.7 |
| 20260901081853 | 72 | 328 | 1.0 | 5.0 | 0.00 | 0.01 | 0.01 | 55 | 1019.6 |
| 20260901080856 | 73 | 323 | 1.0 | 4.0 | 0.00 | 0.01 | 0.01 | 54 | 1019.5 |
| 20260901074722 | 74 | 334 | 3.0 | 9.0 | 0.00 | 0.01 | 0.01 | 52 | 1019.1 |
| 20260901072617 | 75 | 311 | 2.0 | 8.0 | 0.00 | 0.01 | 0.01 | 51 | 1019.0 |
| 20260901071630 | 75 | 334 | 2.0 | 8.0 | 0.00 | 0.01 | 0.01 | 51 | 1019.0 |
| 20260901070608 | 76 | 355 | 3.0 | 10.0 | 0.00 | 0.01 | 0.01 | 50 | 1019.0 |
| 20260901065537 | 76 | 285 | 4.0 | 12.0 | 0.00 | 0.01 | 0.01 | 49 | 1018.9 |
| 20260901064537 | 77 | 20 | 4.0 | 12.0 | 0.00 | 0.01 | 0.01 | 48 | 1019.0 |
| 20260901063516 | 78 | 350 | 3.0 | 9.0 | 0.00 | 0.01 | 0.01 | 48 | 1019.0 |
| 20260901062517 | 78 | 319 | 4.0 | 11.0 | 0.00 | 0.01 | 0.01 | 46 | 1019.0 |
| 20260901061537 | 78 | 306 | 3.0 | 13.0 | 0.00 | 0.01 | 0.01 | 45 | 1019.0 |
| 20260901060601 | 79 | 293 | 4.0 | 13.0 | 0.00 | 0.01 | 0.01 | 43 | 1019.1 |
| 20260901054419 | 79 | 349 | 6.0 | 18.0 | 0.00 | 0.01 | 0.01 | 42 | 1019.3 |
| 20260901053444 | 79 | 328 | 5.0 | 20.0 | 0.00 | 0.01 | 0.01 | 41 | 1019.4 |
| 20260901052424 | 79 | 312 | 7.0 | 20.0 | 0.00 | 0.01 | 0.01 | 41 | 1019.5 |
| 20260901051352 | 79 | 340 | 5.0 | 17.0 | 0.00 | 0.01 | 0.01 | 40 | 1019.7 |
| 20260901050358 | 79 | 294 | 7.0 | 17.0 | 0.00 | 0.01 | 0.01 | 39 | 1019.6 |
| 20260901045418 | 79 | 338 | 7.0 | 17.0 | 0.00 | 0.01 | 0.01 | 38 | 1019.6 |
| 20260901044413 | 79 | 290 | 6.0 | 17.0 | 0.00 | 0.01 | 0.01 | 39 | 1019.6 |
| 20260901041144 | 79 | 157 | 6.0 | 17.0 | 0.00 | 0.01 | 0.01 | 43 | 1020.0 |
| 20260901040136 | 79 | 304 | 5.0 | 16.0 | 0.00 | 0.01 | 0.01 | 44 | 1020.1 |
| 20260901035115 | 78 | 307 | 6.0 | 16.0 | 0.00 | 0.01 | 0.01 | 45 | 1020.3 |
| 20260901033046 | 78 | 319 | 6.0 | 13.0 | 0.00 | 0.01 | 0.01 | 44 | 1020.6 |
| 20260901032039 | 78 | 347 | 4.0 | 18.0 | 0.00 | 0.01 | 0.01 | 46 | 1020.7 |
| 20260901031059 | 77 | 318 | 6.0 | 18.0 | 0.00 | 0.01 | 0.01 | 46 | 1021.0 |
| 20260901024846 | 77 | 345 | 5.0 | 13.0 | 0.00 | 0.01 | 0.01 | 49 | 1021.5 |
| 20260901022659 | 76 | 304 | 6.0 | 17.0 | 0.00 | 0.01 | 0.01 | 50 | 1022.1 |
| 20260901021647 | 76 | 304 | 4.0 | 13.0 | 0.00 | 0.01 | 0.01 | 50 | 1022.4 |
| 20260901020711 | 75 | 352 | 5.0 | 13.0 | 0.00 | 0.01 | 0.01 | 52 | 1022.7 |
| 20260901015734 | 75 | 344 | 4.0 | 13.0 | 0.00 | 0.01 | 0.01 | 54 | 1023.0 |
| 20260901014744 | 75 | 252 | 3.0 | 12.0 | 0.00 | 0.01 | 0.01 | 54 | 1023.3 |
| 20260901013745 | 75 | 288 | 3.0 | 10.0 | 0.00 | 0.01 | 0.01 | 55 | 1023.6 |
| 20260901012803 | 74 | 25 | 3.0 | 12.0 | 0.00 | 0.01 | 0.01 | 55 | 1023.8 |
| 20260901011757 | 73 | 302 | 3.0 | 12.0 | 0.00 | 0.01 | 0.01 | 56 | 1024.1 |
| 20260901010722 | 72 | 342 | 3.0 | 12.0 | 0.00 | 0.01 | 0.01 | 59 | 1024.4 |
| 20260901005708 | 71 | 344 | 3.0 | 10.0 | 0.00 | 0.01 | 0.01 | 61 | 1024.5 |
| 20260901003525 | 69 | 291 | 4.0 | 8.0 | 0.00 | 0.01 | 0.01 | 68 | 1024.9 |
| 20260901002535 | 68 | 329 | 4.0 | 10.0 | 0.00 | 0.01 | 0.01 | 69 | 1025.1 |
| 20260901001554 | 67 | 20 | 5.0 | 10.0 | 0.00 | 0.01 | 0.01 | 71 | 1025.2 |
| 20260831235423 | 65 | 333 | 2.0 | 10.0 | 0.00 | 0.01 | 0.01 | 76 | 1025.4 |
| 20260831234424 | 65 | 300 | 3.0 | 10.0 | 0.00 | 0.01 | 0.01 | 79 | 1025.6 |
| 20260831233407 | 63 | 320 | 3.0 | 8.0 | 0.00 | 0.01 | 0.01 | 81 | 1025.8 |
| 20260831232420 | 62 | 326 | 4.0 | 8.0 | 0.00 | 0.01 | 0.01 | 83 | 1026.0 |
| 20260831231441 | 61 | 301 | 3.0 | 8.0 | 0.00 | 0.01 | 0.01 | 87 | 1026.1 |
| 20260831230450 | 60 | 330 | 3.0 | 8.0 | 0.00 | 0.01 | 0.01 | 90 | 1026.3 |
| 20260831224242 | 57 | 304 | 3.0 | 10.0 | 0.00 | 0.01 | 0.01 | 95 | 1026.6 |
| 20260831223237 | 56 | 342 | 3.0 | 8.0 | 0.00 | 0.01 | 0.01 | 95 | 1026.7 |
| 20260831221143 | 54 | 338 | 2.0 | 6.0 | 0.00 | 0.01 | 0.01 | 97 | 1026.9 |
| 20260831220130 | 53 | 280 | 3.0 | 5.0 | 0.00 | 0.01 | 0.01 | 97 | 1026.9 |
| 20260831215113 | 52 | 321 | 1.0 | 5.0 | 0.00 | 0.01 | 0.01 | 98 | 1026.8 |
| 20260831214044 | 52 | 327 | 2.0 | 5.0 | 0.00 | 0.01 | 0.01 | 98 | 1026.8 |
| 20260831213045 | 51 | 311 | 2.0 | 6.0 | 0.00 | 0.01 | 0.01 | 98 | 1026.7 |
| 20260831212019 | 50 | 329 | 2.0 | 7.0 | 0.00 | 0.01 | 0.01 | 98 | 1026.7 |
| 20260831211024 | 50 | 344 | 2.0 | 7.0 | 0.00 | 0.01 | 0.01 | 97 | 1026.6 |
| 20260831210040 | 49 | 347 | 2.0 | 5.0 | 0.00 | 0.01 | 0.01 | 98 | 1026.6 |
| 20260831205014 | 49 | 321 | 1.0 | 3.0 | 0.00 | 0.01 | 0.01 | 98 | 1026.5 |
| 20260831204036 | 48 | 328 | 1.0 | 5.0 | 0.00 | 0.01 | 0.01 | 97 | 1026.5 |
| 20260831203016 | 49 | 326 | 2.0 | 6.0 | 0.00 | 0.00 | 0.00 | 97 | 1026.5 |
| 20260831201950 | 49 | 314 | 2.0 | 6.0 | 0.00 | 0.00 | 0.00 | 97 | 1026.5 |
| 20260831200926 | 49 | 327 | 1.0 | 4.0 | 0.00 | 0.00 | 0.00 | 97 | 1026.4 |
| 20260831194826 | 49 | 316 | 1.0 | 3.0 | 0.00 | 0.00 | 0.00 | 97 | 1026.3 |